User: anonymous   Login
Location: Allos
(44.2333°N, 6.6333°E)
Time: 07:58:41
(UTC+00:00)
Language:

LO-87 - Orbit

View from above orbital plane
View from above orbital plane
View from above satellite
View from above satellite

Ground track
Ground track

The orbit data is extracted from the following two-line orbital elements,

1 41557U 16033B   21130.85050284  .00001377  00000-0  51015-4 0  9998
2 41557  97.3916 225.0059 0013270  16.2668 124.2139 15.29308413275781
Epoch (UTC): 10 May 2021 20:24:43
Eccentricity: 0.0013270
inclination: 97.3916°
perigee height: 469 km
apogee height: 487 km
right ascension of ascending node: 225.0059°
argument of perigee: 16.2668°
revolutions per day: 15.29308413
mean anomaly at epoch: 124.2139°
orbit number at epoch: 27578

The dashed part of the orbit path shows where the satellite is in the earth's shadow,  

DLR